Location: ??????????
(54.7560°N, 39.1389°E)
Time: 16:53:33
(UTC+00:00)

ARIANE 6 FM1 Upper Stage - Pass Details

Date: 19 May 2025
Orbit: 530 x 611 km, 62.0° (Epoch: 20 June)

Event Time Altitude Azimuth Distance (km) Brightness Sun altitude
Rises 23:42:49 0° 303° (WNW) 2,707 6.2 -9.3°
Reaches altitude 10° 23:45:04 10° 309° (NW) 1,823 5.3 -9.1°
Maximum altitude 23:49:04 49° 26° (NNE) 723 3.8 -8.8°
Drops below altitude 10° 23:53:08 10° 102° (ESE) 1,861 5.7 -8.4°
Sets 23:55:27 0° 108° (ESE) 2,771 6.5 -8.2°
